Location: *
(40.4000°N, 15.1200°E)
Time: 07:54:19
(UTC+00:00)

Cosmos 921 Rocket - Pass Details

Date: 09 April 2020
Orbit: 572 x 632 km, 75.8° (Epoch: 23 May)

Event Time Altitude Azimuth Distance (km) Brightness Sun altitude
Rises 19:01:32 0° 344° (NNW) 2,787 7.1 -16.8°
Reaches altitude 10° 19:03:45 10° 346° (NNW) 1,886 6.1 -17.2°
Maximum altitude 19:07:56 80° 74° (ENE) 591 2.8 -17.9°
Enters shadow 19:09:44 33° 156° (SSE) 970 3.6 -18.2°
